User: anonymous
Location: Luz Observatory
(34.5000°N, 117.2833°W)
Time: 20:38:12
(UTC-07:00)
Language:

Cosmos 1452 Rocket - Orbit

View from above orbital plane
View from above orbital plane
View from above satellite
View from above satellite

Ground track
Ground track

The orbit data is extracted from the following two-line orbital elements,

1 13992U 83031B   14259.98408394  .00000180  00000-0  71347-4 0  5031
2 13992 074.0543 048.6445 0006037 280.2046 218.2814 14.35770736644663
Epoch (UTC): 16 September 2014 23:37:04
Eccentricity: 0.0006037
inclination: 74.0543°
perigee height: 768 km
apogee height: 777 km
right ascension of ascending node: 48.6445°
argument of perigee: 280.2046°
revolutions per day: 14.35770736
mean anomaly at epoch: 218.2814°
orbit number at epoch: 64466

The dashed part of the orbit path shows where the satellite is in the earth's shadow,  

DLR